Location: Bodest
(46.3000°N, 22.5667°E)
Time: 20:32:25
(UTC+00:00)

Cosmos 1455 Rocket - Pass Details

Date: 16 October 2021
Orbit: 604 x 630 km, 82.5° (Epoch: 29 November)

Event Time Altitude Azimuth Distance (km) Brightness Sun altitude
Rises 16:30:21 0° 160° (SSE) 2,878 6.3 -9.2°
Reaches altitude 10° 16:32:46 10° 149° (SSE) 1,982 5.4 -9.6°
Maximum altitude 16:36:34 29° 89° (E) 1,147 3.9 -10.3°
Drops below altitude 10° 16:40:24 10° 30° (NNE) 2,009 5.4 -10.9°
Sets 16:42:51 0° 19° (NNE) 2,925 6.3 -11.4°
